Roseburg, OR

8:39 AM PDT on September 22, 2017 (GMT -0700)
Roseburg Regional

Weather History for KRBG - April, 2013

Change the Weather History Date:

Saturday, April 20, 2013

  Actual Average Record
Temperature  
Mean Temperature 57 °F 53 °F  
Max Temperature 67 °F 63 °F 91 °F (1934)
Min Temperature 46 °F 43 °F 29 °F (1963)
Degree Days  
Heating Degree Days 8 12  
Month to date heating degree days 244 275  
Since 1 July heating degree days 3388 3654  
Cooling Degree Days 0 0  
Month to date cooling degree days 0 0  
Year to date cooling degree days 0 0  
Growing Degree Days 6 (Base 50)    
Moisture  
Dew Point 44 °F    
Average Humidity 64    
Maximum Humidity 93    
Minimum Humidity 34    
Precipitation  
Precipitation 0.00 in 0.09 in 1.10 in (1980)
Month to date precipitation 1.33 1.99  
Year to date precipitation 6.16 14.53  
Sea Level Pressure  
Sea Level Pressure 30.32 in    
Wind  
Wind Speed 3 mph (North)    
Max Wind Speed 12 mph    
Max Gust Speed 15 mph    
Visibility 10 miles    
Events      
T = Trace of Precipitation, MM = Missing Value Source: NWS Daily Summary

Daily Weather History Graph

Daily Weather History Graph

Search for Another Location

Airport or City:

Trip Planner

Search our weather history database for the weather conditions in past years. The results will help you decide how hot, cold, wet, or windy it might be!

Date:

Astronomy

Apr. 20, 2013 Rise Set
Actual Time 6:22 AM PDT 8:02 PM PDT
Civil Twilight 5:52 AM PDT 8:32 PM PDT
Nautical Twilight 5:16 AM PDT 9:09 PM PDT
Astronomical Twilight 4:36 AM PDT 9:48 PM PDT
Moon 2:43 PM PDT (4/20) 3:24 AM PDT (4/20)
Length of Visible Light 14h 40m
Length of Day
13h 39m
Waxing Gibbous, 72% of the Moon is Illuminated
Apr 20
Waxing Gibbous
Apr 25
Full
May 2
Last Quarter
May 9
New
May 17
First Quarter

Hourly Weather History & Observations

Time (PDT) Temp. Dew Point Humidity Pressure Visibility Wind Dir Wind Speed Gust Speed Precip Events Conditions
12:53 AM 51.1 °F 46.9 °F 86% 30.35 in 10.0 mi Calm Calm - N/A   Overcast
1:14 AM 51.8 °F 46.4 °F 82% 30.35 in 10.0 mi Calm Calm - N/A   Overcast
1:53 AM 50.0 °F 46.0 °F 86% 30.35 in 10.0 mi Calm Calm - N/A   Partly Cloudy
2:14 AM 48.2 °F 46.4 °F 93% 30.34 in 10.0 mi Calm Calm - N/A   Mostly Cloudy
2:45 AM 48.2 °F 44.6 °F 87% 30.33 in 10.0 mi Calm Calm - N/A   Overcast
2:53 AM 48.0 °F 45.0 °F 89% 30.34 in 10.0 mi Calm Calm - N/A   Mostly Cloudy
3:53 AM 46.9 °F 44.1 °F 90% 30.35 in 10.0 mi Calm Calm - N/A   Partly Cloudy
4:53 AM 46.9 °F 44.1 °F 90% 30.36 in 10.0 mi Calm Calm - N/A   Overcast
5:53 AM 48.0 °F 45.0 °F 89% 30.36 in 10.0 mi Calm Calm - N/A   Overcast
6:45 AM 48.2 °F 46.4 °F 93% 30.35 in 10.0 mi Calm Calm - N/A   Overcast
6:53 AM 48.0 °F 46.0 °F 93% 30.35 in 10.0 mi Calm Calm - N/A   Overcast
7:53 AM 48.9 °F 46.0 °F 90% 30.36 in 10.0 mi Calm Calm - N/A   Overcast
8:53 AM 51.1 °F 45.0 °F 80% 30.37 in 10.0 mi North 5.8 mph - N/A   Overcast
9:53 AM 53.1 °F 45.0 °F 74% 30.36 in 10.0 mi North 3.5 mph - N/A   Overcast
10:09 AM 53.6 °F 44.6 °F 72% 30.35 in 10.0 mi North 3.5 mph - N/A   Overcast
10:53 AM 55.0 °F 45.0 °F 69% 30.35 in 10.0 mi Calm Calm - N/A   Overcast
11:53 AM 55.9 °F 43.0 °F 62% 30.35 in 10.0 mi Calm Calm - N/A   Overcast
12:53 PM 62.1 °F 42.1 °F 48% 30.32 in 10.0 mi Calm Calm - N/A   Clear
1:53 PM 61.0 °F 41.0 °F 48% 30.30 in 10.0 mi Calm Calm - N/A   Clear
2:53 PM 63.0 °F 39.9 °F 43% 30.28 in 10.0 mi Variable 3.5 mph - N/A   Clear
3:53 PM 66.0 °F 37.9 °F 36% 30.26 in 10.0 mi North 11.5 mph - N/A   Clear
4:53 PM 66.0 °F 37.9 °F 36% 30.24 in 10.0 mi Variable 6.9 mph - N/A   Clear
5:53 PM 66.0 °F 37.9 °F 36% 30.23 in 10.0 mi NNW 8.1 mph - N/A   Clear
6:53 PM 64.0 °F 39.0 °F 40% 30.23 in 10.0 mi NNW 8.1 mph - N/A   Clear
7:53 PM 61.0 °F 42.1 °F 50% 30.24 in 10.0 mi NNW 10.4 mph - N/A   Clear
8:53 PM 57.9 °F 45.0 °F 62% 30.27 in 10.0 mi North 8.1 mph - N/A   Clear
9:53 PM 55.0 °F 45.0 °F 69% 30.29 in 10.0 mi North 4.6 mph - N/A   Clear
10:53 PM 53.1 °F 44.1 °F 71% 30.30 in 10.0 mi North 3.5 mph - N/A   Clear
11:53 PM 50.0 °F 43.0 °F 77% 30.30 in 10.0 mi NE 4.6 mph - N/A   Clear